Weather home | Your neighborhood | Marine | Radar | Hurricane | Almanac

Daily weather history


Statistical History for Friday, January 25, 2013

St. Petersburg Airport, FL


  Actual Average Record
Temperature
Mean Temperature -  
Max Temperature 70 °F 88 °F (1984)
Min Temperature 54 °F 37 °F (2003)
Degree Days
Heating Degree Days    
Growing Degree Days 10 (Base - )  
Moisture
Dew Point   
Average Humidity    
Maximum Humidity    
Minimum Humidity    
Precipitation
Precipitation - - ()
Wind
Wind Speed   
Max Wind Speed   
Max Gust Speed   
Visibility   
Events   
Averages and records for this station are not official NWS values.
Key: T is trace of precipitation, MM is missing value
Source: NWS Daily Summary
Seasonal Weather Averages
Time(EST)TemperatureDew PointHumidity Sea Level Pressure Visibility Wind DirectionWind SpeedGust SpeedPrecipitationEventsConditions
12:01 AM 51.8 °F 50.0 °F 94% 30.31 in 4.0 miles Calm Calm - N/A   Clear
12:12 AM 51.8 °F 50.0 °F 94% 30.31 in 1.8 miles Calm Calm - N/A   Clear
12:21 AM 51.8 °F 50.0 °F 94% 30.31 in 4.0 miles Calm Calm - N/A   Clear
12:53 AM 50.0 °F 48.9 °F 96% 30.31 in 2.5 miles Calm Calm - N/A   Clear
1:18 AM 50.0 °F 48.2 °F 94% 30.31 in 8.0 miles North 3.5 mph - N/A   Clear
1:53 AM 52.0 °F 51.1 °F 97% 30.30 in 4.0 miles Calm Calm - N/A   Clear
1:57 AM 51.8 °F 51.8 °F 100% 30.30 in 1.8 miles Calm Calm - N/A   Clear
2:07 AM 51.8 °F 51.8 °F 100% 30.29 in 4.0 miles Calm Calm - N/A   Clear
2:53 AM 50.0 °F 50.0 °F 100% 30.28 in 2.5 miles Calm Calm - N/A   Clear
3:06 AM 51.8 °F 51.8 °F 100% 30.28 in 1.2 miles Calm Calm - N/A   Clear
3:26 AM 50.0 °F 50.0 °F 100% 30.27 in 0.8 miles Calm Calm - N/A   Mist
3:40 AM 48.2 °F 48.2 °F 100% 30.27 in 1.2 miles Calm Calm - N/A   Partly Cloudy
3:51 AM 48.2 °F 48.2 °F 100% 30.27 in 0.8 miles Calm Calm - N/A   Clear
3:53 AM 48.9 °F 48.0 °F 97% 30.27 in 0.8 miles Calm Calm - N/A   Clear
4:00 AM 48.2 °F 48.2 °F 100% 30.27 in 2.5 miles Calm Calm - N/A   Clear
4:07 AM 50.0 °F 48.2 °F 94% 30.27 in 4.0 miles Calm Calm - N/A   Clear
4:24 AM 48.2 °F 48.2 °F 100% 30.27 in 1.8 miles Calm Calm - N/A   Clear
4:39 AM 48.2 °F 48.2 °F 100% 30.27 in 0.8 miles Calm Calm - N/A   Clear
4:46 AM 48.2 °F 48.2 °F 100% 30.27 in 2.0 miles NNW 3.5 mph - N/A   Clear
4:53 AM 48.9 °F 48.0 °F 97% 30.27 in 4.0 miles NNW 3.5 mph - N/A   Clear
4:55 AM 48.2 °F 48.2 °F 100% 30.27 in 1.5 miles NNW 3.5 mph - N/A   Clear
4:57 AM 48.2 °F 48.2 °F 100% 30.27 in 0.8 miles Calm Calm - N/A   Mist
5:32 AM 48.2 °F 48.2 °F 100% 30.28 in 0.5 miles North 3.5 mph - N/A Fog Fog
5:42 AM 50.0 °F 48.2 °F 94% 30.28 in 2.0 miles North 3.5 mph - N/A   Clear
5:53 AM 48.9 °F 48.0 °F 97% 30.28 in 2.0 miles Calm Calm - N/A   Clear
6:01 AM 48.2 °F 48.2 °F 100% 30.29 in 7.0 miles North 3.5 mph - N/A   Clear
6:53 AM 48.0 °F 46.9 °F 96% 30.31 in 7.0 miles SE 4.6 mph - N/A   Clear
7:53 AM 53.1 °F 53.1 °F 100% 30.31 in 7.0 miles ESE 4.6 mph - N/A   Clear
8:53 AM 59.0 °F 57.0 °F 93% 30.32 in 6.0 miles Calm Calm - N/A   Clear
9:53 AM 62.1 °F 55.9 °F 80% 30.33 in 10.0 miles Variable 3.5 mph - N/A   Clear
10:53 AM 64.0 °F 55.9 °F 75% 30.33 in 10.0 miles NE 5.8 mph - N/A   Clear
11:53 AM 68.0 °F 55.0 °F 63% 30.30 in 10.0 miles ENE 4.6 mph - N/A   Clear
12:53 PM 70.0 °F 48.9 °F 47% 30.27 in 10.0 miles NE 5.8 mph - N/A   Clear
1:53 PM 71.1 °F 48.9 °F 45% 30.24 in 10.0 miles NNE 6.9 mph - N/A   Clear
2:53 PM 72.0 °F 46.9 °F 41% 30.22 in 10.0 miles East 3.5 mph - N/A   Clear
3:53 PM 72.0 °F 48.0 °F 43% 30.21 in 10.0 miles NNW 4.6 mph - N/A   Clear
4:53 PM 71.1 °F 46.9 °F 42% 30.21 in 10.0 miles WSW 5.8 mph - N/A   Clear
5:53 PM 64.9 °F 51.1 °F 61% 30.22 in 10.0 miles NW 6.9 mph - N/A   Clear
6:53 PM 62.1 °F 52.0 °F 70% 30.23 in 10.0 miles Calm Calm - N/A   Clear
7:53 PM 59.0 °F 51.1 °F 75% 30.24 in 10.0 miles WNW 3.5 mph - N/A   Clear
8:53 PM 55.0 °F 51.1 °F 86% 30.25 in 10.0 miles Calm Calm - N/A   Clear
9:53 PM 54.0 °F 50.0 °F 86% 30.24 in 10.0 miles WSW 3.5 mph - N/A   Clear
10:53 PM 53.1 °F 51.1 °F 93% 30.24 in 9.0 miles WSW 4.6 mph - N/A   Clear
11:53 PM 54.0 °F 52.0 °F 93% 30.25 in 7.0 miles Calm Calm - N/A   Clear
ADVERTISEMENT
Enter city or zip code to search weather conditions:


  • 490 First Avenue South
  • St. Petersburg, FL 33701
  • 727-893-8111